Simultaneous Nadir Overpasses (SNOs) Predictions

Prediction of SNOs between FY3D and NOAA-19 Satellite Orbit:

Table of predicted SNOs for the next 14.0 days since TLE Epoch: 2/13/2021
Index Date (FY3D) Time (FY3D) Lat,Lon (FY3D) SZA (FY3D ) Date (NOAA-19) Time (NOAA-19) Lat,Lon (NOAA-19) SZA (NOAA-19 ) Distance(km) Time Diff (sec)
1 02/16/2021 02:52:47 -78.76, -70.18 87.50 02/16/2021 02:51:32 -78.73, -70.55 87.46 8.67 75
2 02/16/2021 03:43:32 78.76, 97.14 92.49 02/16/2021 03:42:32 78.77, 97.00 92.54 3.40 60
3 02/16/2021 04:34:17 -78.80, -95.79 87.47 02/16/2021 04:33:31 -78.78, -95.69 87.48 3.04 46
4 02/16/2021 05:25:02 78.80, 71.53 92.52 02/16/2021 05:24:32 78.79, 71.61 92.52 2.05 30
5 02/16/2021 06:15:46 -78.80,-121.16 87.49 02/16/2021 06:15:31 -78.80,-121.08 87.50 1.88 15
6 02/16/2021 07:06:31 78.80, 46.16 92.50 02/16/2021 07:06:32 78.80, 46.21 92.49 1.24 1
7 02/16/2021 07:57:15 -78.80,-146.54 87.52 02/16/2021 07:57:31 -78.81,-146.47 87.52 1.81 16
8 02/16/2021 08:48:00 78.80, 20.78 92.47 02/16/2021 08:48:32 78.82, 20.82 92.47 1.98 32
9 02/16/2021 09:38:44 -78.80,-171.91 87.54 02/16/2021 09:39:31 -78.83,-171.86 87.54 2.89 47
10 02/16/2021 10:29:29 78.80, -4.59 92.45 02/16/2021 10:30:32 78.83, -4.57 92.45 3.36 63



Historial Predications of SNOs between FY3D and NOAA-19
